Location: El Bakhil
(32.7726°N, 5.5387°W)
Time: 20:24:54
(UTC+00:00)

Envisat - Pass Details

Date: 09 December 2021
Orbit: 764 x 766 km, 98.2° (Epoch: 18 January)

Event Time Altitude Azimuth Distance (km) Brightness Sun altitude
Rises 05:48:42 0° 3° (N) 3,235 6.1 -17.3°
Reaches altitude 10° 05:51:06 10° 357° (N) 2,305 5.3 -16.8°
Maximum altitude 05:55:52 42° 287° (WNW) 1,084 3.3 -15.8°
Drops below altitude 10° 06:00:36 10° 218° (SW) 2,292 5.3 -14.9°
Sets 06:02:59 0° 211° (SSW) 3,214 6.1 -14.4°
